sat.trackr.live / text

‹ back to catalog

STARLINK-3249

NORAD 49730 · 2021-115G

PAYLOAD ACTIVE UNKNOWN

§ Identity

Operator
Country
US
Launch date
2021-12-02
Launch site
AFETR
Launch vehicle
Mass (kg)
RCS (m²)

Purposes: comms

External: N2YO · Heavens-Above · Gunter

§ Orbital elements

Epoch: 2026-05-24T12:11:37.055328Z

Period
95.44 min
Inclination
53.2146°
Eccentricity
0.0001124
Mean motion
15.08839676 rev/d
Perigee alt
539.0 km
Apogee alt
540.5 km
Semi-major
6,917.9 km
B*
-3.2856e-6
RAAN
178.9506°
Arg perigee
79.4057°
Mean anomaly
280.7061°
Rev number
24,683

§ Raw data

STARLINK-32491 49730U 21115G   26144.50806777 -.00000340  00000+0 -32856-5 0  99972 49730  53.2146 178.9506 0001124  79.4057 280.7061 15.08839676246832

JSON: /api/v1/satellites/49730 · /tle

For live sub-satellite position, see the globe view (requires WebGL).

§ Visibility from observer

Set your observer location to see the next 7 days of passes ≥ 10°. The values pass through the URL so the page stays shareable.

No JS? Fill the form by hand. The geolocation button needs JavaScript.